Location: Ferchesar
(52.6477°N, 12.4298°E)
Time: 10:03:16
(UTC+01:00)

S-56A Canister/Altair - Pass Details

Date: 13 December 2021
Orbit: 633 x 2499 km, 38.9° (Epoch: 19 January)

Event Time Altitude Azimuth Distance (km) Brightness Sun altitude
Rises 18:39:16 0° 188° (S) 6,162 12.3 -23.4°
Reaches altitude 10° 18:45:50 10° 170° (S) 5,056 11.6 -24.4°
Maximum altitude 18:52:53 16° 140° (SE) 4,354 11.0 -25.4°
Enters shadow 18:54:22 15° 133° (SE) 4,311 10.9 -25.7°
Drops below altitude 10° 18:59:13 10° 110° (ESE) 4,481 - -26.4°
Sets 19:04:20 0° 90° (E) 5,133 - -27.2°
